TimeEDT,TemperatureF,Dew PointF,Humidity,Sea Level PressureIn,VisibilityMPH,Wind Direction,Wind SpeedMPH,Gust SpeedMPH,PrecipitationIn,Events,Conditions,WindDirDegrees,DateUTC
12:13 AM,60.1,58.3,94,29.52,10.0,South,17.3,24.2,N/A,Rain,Rain,190,2013-04-19 04:13:00
12:34 AM,60.8,58.1,91,29.51,10.0,South,20.7,25.3,N/A,Rain,Light Rain,190,2013-04-19 04:34:00
12:53 AM,60.3,57.9,92,29.51,10.0,South,23.0,31.1,N/A,Rain,Light Rain,190,2013-04-19 04:53:00
1:13 AM,59.9,58.1,94,29.51,10.0,South,17.3,25.3,N/A,Rain,Light Rain,180,2013-04-19 05:13:00
1:34 AM,59.4,58.1,96,29.50,10.0,South,15.0,21.9,N/A,Rain,Rain,180,2013-04-19 05:34:00
1:53 AM,59.0,58.1,97,29.48,10.0,South,11.5,-,N/A,Rain,Rain,180,2013-04-19 05:53:00
2:13 AM,59.0,58.3,97,29.49,10.0,South,11.5,-,N/A,Rain,Heavy Rain,190,2013-04-19 06:13:00
2:33 AM,58.6,58.3,99,29.47,7.0,South,17.3,21.9,N/A,Rain,Rain,170,2013-04-19 06:33:00
2:53 AM,58.5,58.1,99,29.45,10.0,South,16.1,19.6,N/A,Rain,Light Rain,170,2013-04-19 06:53:00
3:13 AM,58.5,58.1,99,29.44,4.0,SSE,15.0,20.7,N/A,Rain,Heavy Rain,160,2013-04-19 07:13:00
3:33 AM,59.0,59.0,100,29.42,5.0,SSE,11.5,20.7,N/A,Rain,Rain,160,2013-04-19 07:33:00
3:53 AM,58.6,58.6,100,29.42,5.0,SSE,12.7,17.3,N/A,Rain,Heavy Rain,160,2013-04-19 07:53:00
4:13 AM,58.6,58.6,100,29.40,7.0,SSE,12.7,18.4,N/A,Rain,Rain,160,2013-04-19 08:13:00
4:33 AM,58.5,58.3,99,29.39,10.0,SSE,10.4,17.3,N/A,Rain,Rain,150,2013-04-19 08:33:00
4:53 AM,58.1,58.1,100,29.36,10.0,SE,11.5,-,N/A,Rain,Light Rain,140,2013-04-19 08:53:00
5:13 AM,58.1,58.1,100,29.34,10.0,SSE,15.0,20.7,N/A,Rain,Rain,160,2013-04-19 09:13:00
5:33 AM,58.3,58.3,100,29.32,10.0,SSE,19.6,26.5,N/A,Rain,Light Rain,160,2013-04-19 09:33:00
5:53 AM,58.3,58.1,99,29.31,10.0,SSE,18.4,24.2,N/A,Rain,Rain,160,2013-04-19 09:53:00
6:13 AM,58.5,58.3,99,29.30,5.0,South,19.6,28.8,N/A,Rain,Rain,170,2013-04-19 10:13:00
6:53 AM,46.6,46.2,99,29.34,3.0,West,18.4,28.8,N/A,,Unknown,270,2013-04-19 10:53:00
7:14 AM,45.5,45.5,100,29.34,10.0,West,15.0,-,N/A,Rain,Light Rain,260,2013-04-19 11:14:00
7:33 AM,44.8,44.8,100,29.33,7.0,West,13.8,21.9,N/A,Rain,Light Rain,260,2013-04-19 11:33:00
7:53 AM,43.9,43.7,99,29.34,2.5,West,18.4,29.9,N/A,Rain,Light Rain,260,2013-04-19 11:53:00
8:14 AM,43.2,43.2,100,29.35,2.0,West,15.0,24.2,N/A,Rain,Light Rain,260,2013-04-19 12:14:00
8:33 AM,42.4,42.4,100,29.34,2.5,WSW,17.3,29.9,N/A,,Unknown,250,2013-04-19 12:33:00
8:53 AM,41.7,41.2,98,29.34,10.0,WSW,17.3,26.5,N/A,,Overcast,250,2013-04-19 12:53:00
9:14 AM,41.9,40.5,95,29.35,7.0,WSW,19.6,28.8,N/A,Rain,Light Rain,250,2013-04-19 13:14:00
9:33 AM,41.2,39.6,94,29.34,7.0,WSW,24.2,32.2,N/A,Rain,Rain,240,2013-04-19 13:33:00
9:53 AM,41.0,38.8,92,29.35,10.0,WSW,24.2,33.4,N/A,,Overcast,250,2013-04-19 13:53:00
10:14 AM,40.5,37.9,91,29.36,10.0,WSW,21.9,34.5,N/A,,Overcast,250,2013-04-19 14:14:00
10:53 AM,40.3,36.7,87,29.36,10.0,WSW,23.0,34.5,N/A,,Overcast,240,2013-04-19 14:53:00
11:14 AM,40.1,35.1,82,29.37,10.0,WSW,28.8,38.0,N/A,,Overcast,240,2013-04-19 15:14:00
11:33 AM,40.3,34.5,80,29.39,10.0,WSW,24.2,38.0,N/A,,Overcast,240,2013-04-19 15:33:00
11:53 AM,40.1,33.1,76,29.39,10.0,WSW,29.9,41.4,N/A,,Overcast,240,2013-04-19 15:53:00
12:14 PM,40.1,32.9,75,29.41,10.0,WSW,28.8,39.1,N/A,,Overcast,240,2013-04-19 16:14:00
12:33 PM,40.5,33.1,75,29.42,10.0,SW,26.5,35.7,N/A,,Overcast,230,2013-04-19 16:33:00
12:53 PM,40.6,32.7,73,29.42,10.0,WSW,23.0,34.5,N/A,,Overcast,240,2013-04-19 16:53:00
1:14 PM,41.2,32.5,71,29.42,10.0,WSW,26.5,40.3,N/A,,Overcast,240,2013-04-19 17:14:00
1:33 PM,39.7,31.8,73,29.41,10.0,WSW,25.3,35.7,N/A,,Overcast,240,2013-04-19 17:33:00
1:54 PM,39.6,32.0,74,29.42,10.0,WSW,25.3,39.1,N/A,,Overcast,240,2013-04-19 17:54:00
2:14 PM,39.4,32.0,75,29.42,10.0,SW,26.5,35.7,N/A,,Overcast,230,2013-04-19 18:14:00
2:33 PM,40.3,32.2,73,29.43,10.0,WSW,24.2,38.0,N/A,,Overcast,240,2013-04-19 18:33:00
2:54 PM,41.0,32.2,71,29.43,10.0,WSW,26.5,40.3,N/A,,Overcast,240,2013-04-19 18:54:00
3:14 PM,40.1,31.5,71,29.45,10.0,WSW,26.5,40.3,N/A,,Overcast,240,2013-04-19 19:14:00
3:33 PM,41.4,31.6,68,29.45,10.0,SW,26.5,43.7,N/A,,Overcast,230,2013-04-19 19:33:00
3:54 PM,41.0,31.6,69,29.45,10.0,SW,23.0,42.6,N/A,,Overcast,230,2013-04-19 19:54:00
4:13 PM,42.1,31.5,66,29.46,10.0,SW,27.6,40.3,N/A,,Overcast,230,2013-04-19 20:13:00
4:33 PM,41.0,30.9,67,29.46,10.0,SW,26.5,39.1,N/A,,Overcast,230,2013-04-19 20:33:00
4:54 PM,40.1,31.3,71,29.48,7.0,WSW,26.5,39.1,N/A,,Unknown,240,2013-04-19 20:54:00
5:13 PM,40.1,32.2,73,29.49,10.0,SW,23.0,34.5,N/A,,Overcast,230,2013-04-19 21:13:00
5:33 PM,40.6,32.2,72,29.50,10.0,SW,23.0,39.1,N/A,,Overcast,230,2013-04-19 21:33:00
5:54 PM,41.2,32.0,70,29.51,10.0,WSW,31.1,44.9,N/A,,Overcast,240,2013-04-19 21:54:00
6:13 PM,40.3,32.0,72,29.52,10.0,WSW,27.6,42.6,N/A,,Overcast,240,2013-04-19 22:13:00
6:33 PM,41.0,32.0,70,29.53,10.0,SW,20.7,35.7,N/A,,Mostly Cloudy,230,2013-04-19 22:33:00
6:54 PM,39.7,32.7,76,29.55,10.0,WSW,25.3,36.8,N/A,,Mostly Cloudy,250,2013-04-19 22:54:00
7:13 PM,39.2,32.2,76,29.55,10.0,WSW,19.6,35.7,N/A,,Mostly Cloudy,240,2013-04-19 23:13:00
7:33 PM,37.8,32.0,80,29.56,10.0,WSW,21.9,36.8,N/A,,Overcast,250,2013-04-19 23:33:00
7:54 PM,37.4,32.4,82,29.58,10.0,WSW,20.7,38.0,N/A,,Overcast,240,2013-04-19 23:54:00
8:13 PM,37.0,32.9,85,29.59,10.0,WSW,16.1,25.3,N/A,,Overcast,240,2013-04-20 00:13:00
8:34 PM,36.1,32.2,86,29.60,7.0,WSW,20.7,35.7,N/A,Snow,Light Snow,240,2013-04-20 00:34:00
8:54 PM,35.1,32.5,91,29.61,10.0,SW,17.3,25.3,N/A,,Overcast,230,2013-04-20 00:54:00
9:13 PM,35.2,32.5,90,29.62,10.0,WSW,16.1,24.2,N/A,,Overcast,240,2013-04-20 01:13:00
9:34 PM,35.6,32.0,87,29.62,10.0,SW,15.0,20.7,N/A,,Overcast,230,2013-04-20 01:34:00
9:54 PM,35.8,32.0,86,29.63,10.0,SW,13.8,24.2,N/A,,Overcast,230,2013-04-20 01:54:00
10:13 PM,35.6,32.0,87,29.63,10.0,WSW,15.0,23.0,N/A,,Overcast,240,2013-04-20 02:13:00
10:34 PM,35.6,32.0,87,29.64,10.0,WSW,17.3,24.2,N/A,,Overcast,240,2013-04-20 02:34:00
10:54 PM,35.6,32.0,87,29.64,10.0,WSW,12.7,24.2,N/A,,Overcast,240,2013-04-20 02:54:00
11:13 PM,35.2,32.0,88,29.65,10.0,WSW,15.0,18.4,N/A,,Overcast,240,2013-04-20 03:13:00
11:34 PM,35.1,32.0,89,29.65,10.0,WSW,12.7,-,N/A,,Overcast,250,2013-04-20 03:34:00
11:53 PM,34.9,32.0,89,29.65,10.0,WSW,15.0,-,N/A,,Overcast,240,2013-04-20 03:53:00